Lid_Strength_Index
-0 0 3 5 10 12 15 13 11 10 9 7 7 8 8 7 8 10 3 1 1 1 -0 -0 -1 -1 -1 -1 -2 -2 -2 -2 -2 -2 -2 -2 -2 -2 -2 -2 -2 -2 -2 -1 -1 -1 -1 -1 -1
2 3 5 7 12 16 15 12 11 9 7 6 7 6 7 8 4 4 3 1 0 0 0 -0 -1 -1 -1 -1 -1 -1 -2 -2 -2 -2 -2 -2 -2 -2 -2 -2 -2 -2 -1 -1 -1 -1 -1 -1 -1
2 3 8 10 11 13 14 10 10 6 5 6 7 5 5 6 3 3 2 1 0 0 0 -0 -1 -1 -1 -1 -1 -1 -2 -2 -2 -2 -2 -2 -2 -2 -2 -2 -2 -2 -1 -1 -1 -1 -1 -1 -1
4 6 9 12 12 10 10 9 7 7 6 5 6 8 5 3 3 2 1 1 1 1 0 -0 -1 -1 -1 -1 -1 -1 -1 -2 -2 -2 -2 -2 -2 -2 -2 -2 -2 -2 -1 -1 -1 -1 -1 -1 -1
5 8 13 13 12 9 7 8 8 8 6 6 6 7 6 4 2 1 1 1 1 1 0 -0 -1 -1 -1 -1 -1 -1 -1 -1 -2 -2 -2 -2 -2 -2 -2 -2 -2 -2 -1 -1 -1 -1 -1 -1 -1
9 10 14 14 12 9 7 8 8 7 6 6 7 7 6 3 2 2 1 1 1 1 0 0 -1 -1 -1 -1 -1 -1 -1 -1 -1 -1 -2 -2 -2 -2 -2 -1 -1 -1 -1 -1 -1 -1 -1 -1 -1
11 12 14 13 11 9 7 7 8 8 7 7 6 7 6 4 2 2 1 1 1 0 0 0 0 -0 -1 -1 -1 -1 -1 -1 -1 -1 -1 -1 -1 -1 -2 -2 -1 -1 -1 -1 -1 -1 -1 -1 -1
10 12 14 13 12 11 7 7 7 7 7 5 4 7 8 4 4 3 3 2 2 1 1 1 0 0 0 -0 -1 -1 -1 -1 -1 -1 -1 -1 -1 -1 -1 -1 -1 -1 -1 -1 -1 -1 -1 -1 -1
9 14 15 13 12 10 8 8 6 5 6 6 5 5 4 3 4 5 6 4 2 2 1 1 0 0 0 0 -0 -1 -1 -1 -1 -1 -1 -1 0 0 -0 -1 -1 -1 -1 -1 -1 -1 -1 -1 -1
9 14 13 11 10 10 9 9 7 6 7 7 7 4 4 4 5 5 6 6 4 3 2 1 1 1 0 0 0 0 0 0 -0 -0 0 0 1 1 -0 -1 -1 -1 -1 -1 -1 -1 -1 -1 1
8 11 10 9 9 9 8 9 8 9 10 8 7 6 5 5 5 6 6 6 5 2 2 1 1 1 0 1 0 0 0 0 0 0 0 1 0 0 0 1 1 1 -1 0 -0 0 0 1 1
10 8 7 7 7 6 7 6 7 8 8 6 6 6 6 5 6 6 6 5 6 5 2 1 1 1 1 0 0 0 0 0 0 0 0 0 1 1 1 0 0 0 1 0 2 2 1 1 1
11 8 7 6 6 6 6 7 7 7 6 5 5 5 5 6 6 6 6 6 6 6 4 2 1 1 1 1 1 0 1 0 0 0 0 -0 0 1 1 1 0 2 2 2 2 2 2 2 1
10 9 9 8 7 7 8 8 7 7 5 5 5 5 6 6 6 7 7 6 6 6 5 1 1 1 1 1 1 1 0 0 0 0 0 0 1 0 1 0 1 2 2 2 2 2 3 2 2
11 12 11 10 11 10 7 9 9 6 5 6 6 6 6 6 6 6 6 6 5 4 4 2 1 1 1 1 1 1 1 1 0 0 0 0 1 1 0 1 2 3 2 2 3 3 3 3 2
13 13 15 11 10 10 9 12 8 6 6 6 6 6 6 6 6 5 5 5 4 5 5 5 1 1 1 1 1 1 1 1 1 0 0 1 0 0 2 1 2 2 2 3 3 3 3 2 2
14 15 14 12 10 10 10 12 8 6 6 6 6 6 6 5 5 5 4 4 4 4 5 5 2 2 1 1 1 1 1 1 1 1 1 1 1 1 2 2 3 2 3 3 3 3 3 4 3
15 14 12 13 10 10 11 11 8 7 7 7 7 7 6 6 5 4 4 4 5 5 4 5 2 2 2 2 3 2 2 2 2 1 1 1 1 2 1 2 3 3 3 3 3 3 4 3 3
13 13 13 11 9 9 10 10 9 7 7 7 7 7 6 6 5 5 5 4 5 4 5 5 2 2 2 3 3 3 3 3 3 2 1 1 2 2 2 3 3 3 3 3 3 4 3 4 3
13 14 14 12 10 11 11 11 9 8 8 7 7 7 6 6 6 5 5 5 5 5 5 5 2 2 2 2 2 3 3 4 3 3 2 2 1 2 3 3 3 3 3 3 4 2 4 4 2
14 14 14 14 11 11 12 13 12 9 8 7 7 6 6 7 7 6 6 5 5 5 4 3 2 2 2 3 4 4 4 4 5 5 4 3 2 2 2 2 3 3 3 3 4 3 4 4 4
16 12 11 12 13 16 12 17 13 11 11 9 9 8 8 7 6 6 5 6 6 5 3 3 2 2 2 3 4 4 4 5 6 4 4 3 2 2 2 3 3 3 3 3 3 3 4 4 5
14 11 12 12 13 15 14 16 14 12 12 10 9 8 7 7 7 6 6 6 6 3 3 3 2 3 3 4 3 4 5 6 5 4 5 4 2 2 2 2 3 3 3 3 3 3 4 4 4
11 11 12 13 14 19 15 15 16 14 12 11 9 8 7 7 7 7 6 5 5 3 3 3 3 4 4 5 5 5 5 5 5 5 5 4 4 3 3 3 3 3 3 3 3 3 3 3 4
12 16 19 20 19 19 14 15 15 12 11 10 10 9 8 8 8 6 8 6 5 4 4 4 4 5 6 6 6 5 6 5 5 4 3 4 4 4 3 3 3 3 2 2 3 3 3 3 3
15 16 19 21 20 19 13 17 15 11 9 8 8 8 8 7 6 6 6 5 5 4 5 5 5 6 6 6 6 6 5 5 4 4 4 4 4 3 3 3 3 2 2 2 3 3 3 2 2
13 17 14 17 16 19 17 15 12 10 9 9 10 9 8 6 7 6 5 5 4 5 6 5 5 5 6 6 5 5 4 3 4 4 4 4 4 3 3 3 2 2 2 2 2 2 2 2 2
11 10 16 18 20 21 18 17 16 13 11 10 10 10 8 7 7 6 5 5 5 5 6 5 5 5 5 4 3 3 3 3 3 3 3 4 3 3 2 2 2 2 2 2 2 3 2 2 2
12 13 13 15 17 20 21 18 13 12 10 11 10 10 8 7 7 6 5 5 5 5 5 6 5 4 4 3 3 3 3 3 3 3 3 3 3 2 2 2 2 2 2 2 3 2 1 2 2
10 12 12 18 19 18 18 18 11 12 11 11 8 8 7 7 6 6 5 5 5 5 5 5 4 3 3 3 3 3 3 3 3 3 3 3 3 3 2 2 2 2 2 2 3 2 1 2 2